DLH453 KLAX-EDDM

Flight info

Callsign DLH453
Flight time N/A
Altitude 35000
Route OSHNN1 BEALE DCT BAWER DCT KU54Q DCT KD60S DCT KD66U DCT KD72W DCT KD78Y/N0473F370 DCT KP84A DCT KP12G DCT 4930N09000W 56N080W 61N070W DCT FEDDY DCT BERUS/M083F390 DCT CLAVY DCT 65N050W 65N040W 64N030W 62N020W DCT BALIX/N0469F390 DCT NINEX DCT GIVEM DCT RODSI DCT TOPPA DCT DIXAT DCT DOJOH DCT DODEN/N0435F330 DCT TABUM DCT BOMBI T104 HAREM/N0392F270 T104 ROKIL ROKIL1B
Aircraft A388/J-SADE2E3GHIJ3J4J5LM1OP2RWXYZ/LB1D1

Departure

Time N/A
Airport Los Angeles International Airport (KLAX)

Arrival

Time 2026-05-05 17:54
Airport Munich Airport (EDDM)
Time Latitude Longitude Altitude Speed Heading
2026-05-05 17:18 50.17586 8.59988 34845 ft 481 kts 138°
2026-05-05 17:18 50.15315 8.63820 34844 ft 481 kts 138°
2026-05-05 17:19 50.10763 8.71476 34844 ft 481 kts 138°
2026-05-05 17:19 50.09245 8.74024 34845 ft 481 kts 138°
2026-05-05 17:20 50.09066 8.74324 34836 ft 481 kts 138°
2026-05-05 17:21 50.04440 8.81808 34853 ft 476 kts 143°
2026-05-05 17:22 50.03049 8.83760 34851 ft 475 kts 143°
2026-05-05 17:22 50.01591 8.85809 34851 ft 476 kts 143°
2026-05-05 17:23 49.96693 8.92719 34851 ft 475 kts 143°
2026-05-05 17:23 49.91796 8.99625 34851 ft 475 kts 143°
2026-05-05 17:24 49.86902 9.06506 34848 ft 475 kts 143°
2026-05-05 17:24 49.81997 9.13380 34855 ft 474 kts 143°
2026-05-05 17:25 49.77096 9.20230 34854 ft 475 kts 143°
2026-05-05 17:25 49.72228 9.27015 34853 ft 474 kts 143°
2026-05-05 17:26 49.67319 9.33838 34851 ft 474 kts 143°
2026-05-05 17:26 49.63241 9.39490 34853 ft 474 kts 143°
2026-05-05 17:27 49.58680 9.46927 34830 ft 479 kts 136°
2026-05-05 17:27 49.54313 9.54646 34844 ft 478 kts 136°
2026-05-05 17:28 49.49921 9.62341 34844 ft 478 kts 136°
2026-05-05 17:28 49.45521 9.70020 34841 ft 478 kts 136°
2026-05-05 17:29 49.41114 9.77687 34845 ft 478 kts 136°
2026-05-05 17:29 49.36701 9.85341 34827 ft 478 kts 136°
2026-05-05 17:30 49.32283 9.92962 34837 ft 478 kts 136°
2026-05-05 17:30 49.27881 10.00540 34195 ft 474 kts 136°
2026-05-05 17:30 49.25677 10.04321 33116 ft 477 kts 136°
2026-05-05 17:31 49.23454 10.08127 32025 ft 480 kts 136°
2026-05-05 17:31 49.21242 10.11915 31254 ft 474 kts 136°
2026-05-05 17:31 49.19063 10.15647 30742 ft 465 kts 136°
2026-05-05 17:31 49.16935 10.19291 30249 ft 455 kts 136°
2026-05-05 17:32 49.14846 10.22862 29720 ft 447 kts 136°
2026-05-05 17:32 49.12803 10.26312 29165 ft 439 kts 137°
2026-05-05 17:32 49.10721 10.29675 28603 ft 432 kts 137°
2026-05-05 17:32 49.08652 10.32964 28060 ft 425 kts 137°
2026-05-05 17:33 49.06617 10.36200 27553 ft 420 kts 137°
2026-05-05 17:33 49.04609 10.39403 27146 ft 416 kts 137°
2026-05-05 17:33 49.02612 10.42593 26652 ft 415 kts 137°
2026-05-05 17:33 49.00625 10.45772 26191 ft 413 kts 136°
2026-05-05 17:34 48.98654 10.48921 25710 ft 410 kts 136°
2026-05-05 17:34 48.96692 10.52049 25265 ft 407 kts 136°
2026-05-05 17:34 48.94743 10.55149 25003 ft 405 kts 136°
2026-05-05 17:34 48.92797 10.58244 24750 ft 405 kts 136°
2026-05-05 17:35 48.90852 10.61336 24434 ft 406 kts 136°
2026-05-05 17:35 48.88887 10.64456 23850 ft 407 kts 136°
2026-05-05 17:35 48.86933 10.67555 23244 ft 405 kts 136°
2026-05-05 17:35 48.85000 10.70622 22658 ft 399 kts 136°
2026-05-05 17:36 48.83089 10.73648 22087 ft 394 kts 136°
2026-05-05 17:36 48.81209 10.76622 21525 ft 388 kts 136°
2026-05-05 17:36 48.79346 10.79559 20969 ft 383 kts 136°
2026-05-05 17:36 48.77502 10.82453 20423 ft 379 kts 136°
2026-05-05 17:37 48.75681 10.85307 19879 ft 375 kts 136°
2026-05-05 17:37 48.73878 10.88129 19335 ft 371 kts 136°
2026-05-05 17:37 48.72089 10.90929 18799 ft 368 kts 136°
2026-05-05 17:37 48.70314 10.93703 18267 ft 366 kts 136°
2026-05-05 17:38 48.68551 10.96453 17697 ft 362 kts 136°
2026-05-05 17:38 48.66809 10.99168 17166 ft 358 kts 136°
2026-05-05 17:38 48.65083 11.01855 16654 ft 353 kts 136°
2026-05-05 17:38 48.63481 11.04664 16218 ft 358 kts 124°
2026-05-05 17:39 48.62316 11.07989 15973 ft 364 kts 119°
2026-05-05 17:39 48.61170 11.11400 15722 ft 364 kts 120°
2026-05-05 17:39 48.60024 11.14793 15470 ft 362 kts 120°
2026-05-05 17:39 48.58875 11.18177 15226 ft 361 kts 120°
2026-05-05 17:40 48.57727 11.21542 14977 ft 360 kts 120°
2026-05-05 17:40 48.56576 11.24906 14705 ft 359 kts 120°
2026-05-05 17:40 48.55432 11.28248 14324 ft 357 kts 120°
2026-05-05 17:40 48.54294 11.31566 13861 ft 353 kts 120°
2026-05-05 17:41 48.53171 11.34836 13349 ft 349 kts 120°
2026-05-05 17:41 48.52061 11.38065 12834 ft 344 kts 119°
2026-05-05 17:41 48.50965 11.41249 12310 ft 340 kts 119°
2026-05-05 17:41 48.49879 11.44401 11807 ft 336 kts 119°
2026-05-05 17:42 48.48805 11.47516 11296 ft 333 kts 119°
2026-05-05 17:42 48.47755 11.50556 10828 ft 329 kts 119°
2026-05-05 17:42 48.46703 11.53596 10314 ft 325 kts 119°
2026-05-05 17:42 48.45656 11.56621 9778 ft 317 kts 118°
2026-05-05 17:43 48.44651 11.59526 9313 ft 305 kts 117°
2026-05-05 17:43 48.43980 11.62435 9000 ft 295 kts 101°
2026-05-05 17:43 48.43926 11.65486 8828 ft 289 kts 84°
2026-05-05 17:43 48.44198 11.68480 8828 ft 289 kts 84°
2026-05-05 17:44 48.44434 11.71482 8830 ft 289 kts 84°
2026-05-05 17:44 48.44656 11.74491 8774 ft 289 kts 85°
2026-05-05 17:44 48.44878 11.77517 8457 ft 290 kts 85°
2026-05-05 17:44 48.45103 11.80528 8079 ft 288 kts 84°
2026-05-05 17:45 48.45329 11.83516 7701 ft 286 kts 84°
2026-05-05 17:45 48.45555 11.86480 7301 ft 283 kts 84°
2026-05-05 17:45 48.45776 11.89380 6904 ft 273 kts 84°
2026-05-05 17:45 48.45986 11.92132 6567 ft 257 kts 84°
2026-05-05 17:46 48.46186 11.94755 6187 ft 248 kts 85°
2026-05-05 17:46 48.46377 11.97294 5807 ft 242 kts 85°
2026-05-05 17:46 48.46563 11.99801 5447 ft 237 kts 84°
2026-05-05 17:46 48.46744 12.02230 5108 ft 223 kts 84°
2026-05-05 17:47 48.46912 12.04488 4761 ft 212 kts 84°
2026-05-05 17:47 48.47067 12.06588 4468 ft 198 kts 84°
2026-05-05 17:47 48.47216 12.08663 4258 ft 195 kts 86°
2026-05-05 17:47 48.47010 12.10614 4068 ft 193 kts 120°
2026-05-05 17:48 48.46046 12.11940 4020 ft 191 kts 159°
2026-05-05 17:48 48.44740 12.12291 4012 ft 191 kts 174°
2026-05-05 17:48 48.43421 12.12286 4014 ft 191 kts 197°
2026-05-05 17:48 48.42357 12.11164 4030 ft 189 kts 232°
2026-05-05 17:49 48.41580 12.09538 4023 ft 191 kts 234°
2026-05-05 17:49 48.40808 12.07911 4024 ft 192 kts 234°
2026-05-05 17:49 48.40038 12.06295 4024 ft 186 kts 234°
2026-05-05 17:49 48.39310 12.04757 4029 ft 176 kts 234°
2026-05-05 17:50 48.38653 12.03216 4027 ft 175 kts 245°
2026-05-05 17:50 48.38266 12.01487 3976 ft 173 kts 257°
2026-05-05 17:50 48.38056 11.99728 3784 ft 170 kts 262°
2026-05-05 17:50 48.37907 11.98013 3550 ft 159 kts 263°
2026-05-05 17:51 48.37789 11.96422 3342 ft 148 kts 263°
2026-05-05 17:51 48.37676 11.94940 3140 ft 141 kts 263°
2026-05-05 17:51 48.37557 11.93474 2959 ft 142 kts 263°
2026-05-05 17:51 48.37444 11.92002 2779 ft 141 kts 263°
2026-05-05 17:52 48.37332 11.90538 2580 ft 141 kts 263°
2026-05-05 17:52 48.37221 11.89071 2390 ft 141 kts 263°
2026-05-05 17:52 48.37106 11.87619 2208 ft 139 kts 263°
2026-05-05 17:52 48.36992 11.86175 2022 ft 139 kts 264°
2026-05-05 17:53 48.36882 11.84732 1849 ft 139 kts 264°
2026-05-05 17:53 48.36775 11.83278 1657 ft 141 kts 264°
2026-05-05 17:53 48.36663 11.81828 1482 ft 138 kts 263°
2026-05-05 17:53 48.36575 11.80633 1486 ft 93 kts 263°
2026-05-05 17:54 48.36513 11.79826 1480 ft 65 kts 263°
2026-05-05 17:54 48.36476 11.79337 1481 ft 32 kts 263°
2026-05-05 17:54 48.36445 11.79028 1478 ft 28 kts 249°
2026-05-05 17:54 48.36346 11.78800 1478 ft 26 kts 233°
2026-05-05 17:55 48.36253 11.78613 1477 ft 20 kts 233°
2026-05-05 17:55 48.36194 11.78502 1478 ft 11 kts 216°
2026-05-05 17:55 48.36109 11.78481 1478 ft 14 kts 170°
2026-05-05 17:55 48.36041 11.78506 1482 ft 7 kts 131°
2026-05-05 17:56 48.36036 11.78583 1477 ft 11 kts 82°
2026-05-05 17:56 48.36047 11.78722 1490 ft 16 kts 83°
2026-05-05 17:56 48.36061 11.78906 1480 ft 16 kts 83°
2026-05-05 17:56 48.36070 11.79022 1486 ft 12 kts 83°
2026-05-05 17:57 48.36081 11.79166 1486 ft 8 kts 83°
2026-05-05 17:57 48.36086 11.79234 1482 ft 9 kts 83°
2026-05-05 17:57 48.36081 11.79301 1483 ft 6 kts 141°
2026-05-05 17:57 48.36024 11.79328 1475 ft 11 kts 169°
2026-05-05 17:58 48.35948 11.79346 1489 ft 10 kts 166°
2026-05-05 17:58 48.35865 11.79386 1480 ft 15 kts 175°
2026-05-05 17:58 48.35785 11.79395 1483 ft 12 kts 172°
2026-05-05 17:58 48.35699 11.79412 1482 ft 8 kts 173°
2026-05-05 17:59 48.35676 11.79416 1486 ft 6 kts 176°
2026-05-05 17:59 48.35652 11.79398 1482 ft 3 kts 242°
2026-05-05 17:59 48.35651 11.79365 1481 ft 5 kts 268°
2026-05-05 17:59 48.35646 11.79313 1479 ft 1 kts 265°
2026-05-05 18:00 48.35645 11.79287 1484 ft 1 kts 264°
2026-05-05 18:00 48.35644 11.79281 1478 ft 0 kts 264°